Location: Unspecified
(0.0000°N, 0.0000°E)
Time: 10:41:13
(UTC+02:00)

Cosmos 2263 Rocket - Visible Passes

Search period start: 24 April 2018 00:00
Search period end: 04 May 2018 00:00
Orbit: 822 x 850 km, 71.0° (Epoch: 23 April)

Date Brightness Start Highest point End Pass type
(mag) Time Alt. Az. Time Alt. Az. Time Alt. Az.
24 Apr 5.0 07:33:04 10° SE 07:35:57 14° ESE 07:38:49 10° ENE visible
24 Apr 2.4 20:14:01 10° N 20:19:28 52° ENE 20:24:54 10° SSE visible
25 Apr 5.1 07:16:57 10° SE 07:19:12 12° ESE 07:21:29 10° E visible
25 Apr 5.1 21:44:45 10° W 21:46:23 11° WSW 21:48:03 10° WSW visible
26 Apr 5.3 07:01:08 10° ESE 07:02:29 11° ESE 07:03:50 10° E visible
26 Apr 5.0 21:27:13 10° W 21:29:40 13° WSW 21:32:06 10° SW visible
27 Apr 4.9 21:09:56 10° WNW 21:12:56 15° WSW 21:15:57 10° SW visible
28 Apr 4.9 20:52:45 10° WNW 20:56:12 17° WSW 20:59:39 10° SW visible
29 Apr 4.8 20:35:39 10° WNW 20:39:28 19° WSW 20:43:17 10° SSW visible
30 Apr 4.8 20:18:36 10° WNW 20:22:44 21° WSW 20:26:51 10° SSW visible
01 May 2.2 07:16:53 10° SSW 07:22:30 86° WNW 07:28:09 10° NNE visible
02 May 2.2 07:00:09 10° SSW 07:05:47 85° ESE 07:11:25 10° NNE visible
03 May 2.3 06:43:26 10° S 06:49:03 76° ESE 06:54:41 10° NNE visible
